When you browse on this site, cookies collect data to enhance your experience and personalize the content and advertising you see.
Visit our Privacy Policy to learn more. By continuing to use the site, you agree to this use of cookies and data.
  • în România
  • Lista ţărilor
  • Pe 7 zile
  • Temperatura apei
  • Hartă satelitară
  • Meteo pe hartă
  • Widget-uri
  • user-avatar
    Intrare

    Meteo pe oră la Żnin

    Astăzi, 21 Aprilie, Duminică

    Timp Temperatura Precipitaţii Vânt Presiune Umiditate
    00:00 +7°C° 0 mm 2 m/s 764 mmHg 62%
    01:00 +6°C° 0 mm 2 m/s 764 mmHg 63%
    02:00 +7°C° 0 mm 1 m/s 763 mmHg 64%
    03:00 +7°C° 0 mm 1 m/s 763 mmHg 65%
    04:00 +6°C° 0 mm 1 m/s 763 mmHg 65%
    05:00 +7°C° 0 mm 1 m/s 763 mmHg 62%
    06:00 +9°C° 0 mm 1 m/s 763 mmHg 59%
    07:00 +10°C° 0 mm 1 m/s 762 mmHg 56%
    08:00 +12°C° 0 mm 2 m/s 762 mmHg 51%
    09:00 +14°C° 0 mm 2 m/s 762 mmHg 46%
    10:00 +16°C° 0 mm 2 m/s 761 mmHg 42%
    11:00 +17°C° 0 mm 3 m/s 761 mmHg 40%
    12:00 +18°C° 0 mm 4 m/s 760 mmHg 38%
    13:00 +19°C° 0 mm 4 m/s 760 mmHg 36%
    14:00 +19°C° 0 mm 5 m/s 760 mmHg 36%
    15:00 +19°C° 0 mm 5 m/s 759 mmHg 37%
    16:00 +19°C° 0 mm 6 m/s 759 mmHg 37%
    17:00 +16°C° 0 mm 5 m/s 758 mmHg 41%
    18:00 +14°C° 0 mm 4 m/s 758 mmHg 46%
    19:00 +12°C° 0 mm 4 m/s 758 mmHg 50%
    20:00 +11°C° 0 mm 3 m/s 758 mmHg 57%
    21:00 +9°C° 0 mm 3 m/s 758 mmHg 64%
    22:00 +8°C° 0 mm 3 m/s 759 mmHg 71%
    23:00 +7°C° 0 mm 3 m/s 759 mmHg 75%

    Mâine, 22 Aprilie, Luni

    Timp Temperatura Precipitaţii Vânt Presiune Umiditate
    00:00 +5°C° 0 mm 3 m/s 759 mmHg 79%
    01:00 +6°C° 0 mm 2 m/s 759 mmHg 83%
    02:00 +5°C° 0 mm 2 m/s 759 mmHg 81%
    03:00 +4°C° 0 mm 3 m/s 758 mmHg 80%
    04:00 +3°C° 0 mm 3 m/s 758 mmHg 78%
    05:00 +4°C° 0 mm 3 m/s 758 mmHg 77%
    06:00 +7°C° 0 mm 3 m/s 759 mmHg 75%
    07:00 +7°C° 0 mm 4 m/s 759 mmHg 74%
    08:00 +10°C° 0 mm 4 m/s 759 mmHg 67%
    09:00 +12°C° 0 mm 5 m/s 759 mmHg 61%
    10:00 +14°C° 0 mm 6 m/s 759 mmHg 54%
    11:00 +15°C° 0 mm 6 m/s 758 mmHg 53%
    12:00 +15°C° 0 mm 6 m/s 758 mmHg 53%
    13:00 +16°C° 0 mm 7 m/s 758 mmHg 53%
    14:00 +16°C° 0 mm 7 m/s 758 mmHg 54%
    15:00 +15°C° 0 mm 7 m/s 757 mmHg 55%
    16:00 +15°C° 0 mm 6 m/s 757 mmHg 56%
    17:00 +14°C° 0 mm 6 m/s 757 mmHg 61%
    18:00 +13°C° 0 mm 5 m/s 757 mmHg 66%
    19:00 +12°C° 0 mm 4 m/s 757 mmHg 71%
    20:00 +12°C° 0 mm 5 m/s 757 mmHg 70%
    21:00 +10°C° 0 mm 5 m/s 758 mmHg 70%
    22:00 +10°C° 0 mm 6 m/s 758 mmHg 69%
    23:00 +9°C° 0 mm 6 m/s 758 mmHg 67%

    Poimâine, 23 Aprilie, Marţi

    Timp Temperatura Precipitaţii Vânt Presiune Umiditate
    00:00 +9°C° 0 mm 6 m/s 758 mmHg 64%
    01:00 +8°C° 0 mm 6 m/s 757 mmHg 61%
    02:00 +8°C° 0 mm 7 m/s 757 mmHg 61%
    03:00 +6°C° 0 mm 7 m/s 757 mmHg 60%
    04:00 +6°C° 0 mm 8 m/s 757 mmHg 59%
    05:00 +6°C° 0 mm 8 m/s 756 mmHg 60%
    06:00 +7°C° 0 mm 9 m/s 756 mmHg 61%
    07:00 +7°C° 0 mm 9 m/s 756 mmHg 61%
    08:00 +9°C° 0 mm 10 m/s 756 mmHg 59%
    09:00 +11°C° 0 mm 10 m/s 755 mmHg 56%
    10:00 +13°C° 0 mm 10 m/s 755 mmHg 54%
    11:00 +14°C° 0 mm 10 m/s 755 mmHg 52%
    12:00 +16°C° 0 mm 10 m/s 754 mmHg 50%
    13:00 +17°C° 0 mm 10 m/s 754 mmHg 48%
    14:00 +17°C° 0 mm 10 m/s 753 mmHg 48%
    15:00 +17°C° 0 mm 10 m/s 753 mmHg 48%
    16:00 +17°C° 0 mm 10 m/s 752 mmHg 48%
    17:00 +16°C° 0 mm 9 m/s 752 mmHg 51%
    18:00 +15°C° 0 mm 8 m/s 752 mmHg 54%
    19:00 +14°C° 0 mm 7 m/s 752 mmHg 57%
    20:00 +14°C° 0 mm 7 m/s 752 mmHg 58%
    21:00 +12°C° 0 mm 7 m/s 752 mmHg 59%
    22:00 +11°C° 0 mm 7 m/s 752 mmHg 60%
    23:00 +11°C° 0.2 mm 7 m/s 752 mmHg 66%

    24 Aprilie, Miercuri

    Timp Temperatura Precipitaţii Vânt Presiune Umiditate
    00:00 +10°C° 0.2 mm 8 m/s 752 mmHg 71%
    01:00 +10°C° 0.2 mm 8 m/s 751 mmHg 77%
    02:00 +10°C° 0.4 mm 8 m/s 751 mmHg 76%
    03:00 +10°C° 0.4 mm 8 m/s 751 mmHg 75%
    04:00 +10°C° 0.4 mm 7 m/s 751 mmHg 75%
    05:00 +10°C° 0 mm 7 m/s 751 mmHg 74%
    06:00 +11°C° 0 mm 7 m/s 751 mmHg 73%
    07:00 +11°C° 0 mm 8 m/s 751 mmHg 72%
    08:00 +13°C° 0 mm 8 m/s 751 mmHg 69%
    09:00 +15°C° 0 mm 8 m/s 751 mmHg 67%
    10:00 +16°C° 0 mm 8 m/s 751 mmHg 65%
    11:00 +17°C° 0 mm 7 m/s 751 mmHg 65%
    12:00 +17°C° 0 mm 7 m/s 751 mmHg 64%
    13:00 +18°C° 0 mm 7 m/s 752 mmHg 63%
    14:00 +20°C° 0 mm 7 m/s 752 mmHg 62%
    15:00 +20°C° 0 mm 6 m/s 752 mmHg 60%
    16:00 +21°C° 0 mm 6 m/s 752 mmHg 59%
    17:00 +20°C° 0 mm 5 m/s 752 mmHg 65%
    18:00 +18°C° 0 mm 4 m/s 752 mmHg 70%
    19:00 +17°C° 0 mm 3 m/s 752 mmHg 76%
    20:00 +15°C° 0 mm 4 m/s 752 mmHg 78%
    21:00 +15°C° 0 mm 4 m/s 753 mmHg 80%
    22:00 +14°C° 0 mm 4 m/s 753 mmHg 82%
    23:00 +14°C° 0 mm 4 m/s 753 mmHg 83%

    25 Aprilie, Joi

    Timp Temperatura Precipitaţii Vânt Presiune Umiditate
    00:00 +13°C° 0 mm 4 m/s 753 mmHg 84%
    01:00 +13°C° 0 mm 4 m/s 753 mmHg 86%
    02:00 +12°C° 0 mm 4 m/s 753 mmHg 86%
    03:00 +12°C° 0 mm 4 m/s 753 mmHg 85%
    04:00 +12°C° 0 mm 4 m/s 753 mmHg 85%
    05:00 +13°C° 0 mm 4 m/s 753 mmHg 82%
    06:00 +14°C° 0 mm 4 m/s 753 mmHg 79%
    07:00 +15°C° 0 mm 5 m/s 753 mmHg 76%
    08:00 +18°C° 0 mm 4 m/s 753 mmHg 72%
    09:00 +20°C° 0 mm 4 m/s 753 mmHg 67%
    10:00 +21°C° 0 mm 4 m/s 753 mmHg 63%
    11:00 +22°C° 0 mm 4 m/s 753 mmHg 60%
    12:00 +23°C° 0 mm 4 m/s 753 mmHg 57%
    13:00 +25°C° 0 mm 4 m/s 753 mmHg 55%
    14:00 +25°C° 0 mm 4 m/s 753 mmHg 56%
    15:00 +24°C° 0 mm 3 m/s 753 mmHg 57%
    16:00 +24°C° 0 mm 3 m/s 752 mmHg 58%
    17:00 +23°C° 0 mm 2 m/s 752 mmHg 63%
    18:00 +20°C° 0 mm 2 m/s 752 mmHg 68%
    19:00 +19°C° 0 mm 2 m/s 752 mmHg 72%
    20:00 +18°C° 0 mm 2 m/s 752 mmHg 75%
    21:00 +17°C° 0 mm 2 m/s 752 mmHg 77%
    22:00 +16°C° 0 mm 2 m/s 752 mmHg 80%
    23:00 +16°C° 0 mm 2 m/s 752 mmHg 82%

    26 Aprilie, Vineri

    Timp Temperatura Precipitaţii Vânt Presiune Umiditate
    00:00 +16°C° 0 mm 2 m/s 751 mmHg 83%
    01:00 +15°C° 0 mm 2 m/s 751 mmHg 85%
    02:00 +15°C° 0 mm 2 m/s 751 mmHg 87%
    03:00 +14°C° 0 mm 3 m/s 750 mmHg 89%
    04:00 +13°C° 0 mm 3 m/s 750 mmHg 91%
    05:00 +14°C° 0 mm 3 m/s 750 mmHg 86%
    06:00 +17°C° 0 mm 3 m/s 750 mmHg 80%
    07:00 +18°C° 0 mm 4 m/s 750 mmHg 74%
    08:00 +20°C° 0 mm 4 m/s 749 mmHg 69%
    09:00 +21°C° 0 mm 3 m/s 749 mmHg 65%
    10:00 +24°C° 0 mm 3 m/s 749 mmHg 60%
    11:00 +23°C° 0.4 mm 4 m/s 749 mmHg 61%
    12:00 +23°C° 0.4 mm 5 m/s 750 mmHg 61%
    13:00 +25°C° 0.4 mm 5 m/s 750 mmHg 62%
    14:00 +22°C° 0.5 mm 7 m/s 750 mmHg 68%
    15:00 +18°C° 0.5 mm 8 m/s 751 mmHg 74%
    16:00 +16°C° 0.5 mm 10 m/s 752 mmHg 81%
    17:00 +15°C° 0.1 mm 9 m/s 753 mmHg 81%
    18:00 +12°C° 0.1 mm 8 m/s 754 mmHg 80%
    19:00 +11°C° 0.1 mm 8 m/s 755 mmHg 80%
    20:00 +11°C° 0 mm 7 m/s 755 mmHg 79%
    21:00 +10°C° 0 mm 7 m/s 756 mmHg 79%
    22:00 +10°C° 0 mm 6 m/s 756 mmHg 79%
    23:00 +10°C° 0 mm 6 m/s 756 mmHg 82%
    Arată mai mult